Location: Timmins
(48.4758°N, 81.3305°W)
Time: 06:25:59
(UTC-04:00)

ISS - Visible Passes

Search period start: 28 May 2022 00:00
Search period end: 07 June 2022 00:00
Orbit: 414 x 421 km, 51.6° (Epoch: 28 May)

Date Brightness Start Highest point End Pass type
(mag) Time Alt. Az. Time Alt. Az. Time Alt. Az.
28 May -2.4 22:48:38 10° W 22:51:31 27° SW 22:53:07 19° S visible
29 May -3.0 22:00:18 10° WNW 22:03:29 41° SSW 22:06:39 10° SE visible
30 May -1.3 22:50:09 10° WSW 22:51:36 12° SW 22:53:01 10° SSW visible
31 May -1.7 22:01:09 10° W 22:03:36 19° SW 22:06:02 10° S visible
